Theta_e
329 330 329 330 330 331 328 328 330 331 328 328 330 329 329 327 327 326 325 326 326 327 328 327 325 324 326 328 329 329 330 330 331 331 330 330 329 336 341 341 340 341 340 339 338 338 335 334 334 334 334 332 332 332 332 331 331 331 330 330 330 329 329 329 328 328 328 327 327 327 328 327 327 327 326 326 326 325 325 325 325 326 327 328 328
330 329 330 330 331 331 331 330 331 330 330 330 329 329 327 325 325 325 325 324 326 328 326 325 326 325 325 328 328 329 329 330 329 329 329 329 328 331 341 340 340 340 340 338 337 337 336 335 334 334 333 333 333 332 332 332 331 331 330 330 330 329 328 328 328 327 327 327 327 327 327 327 327 326 326 326 326 326 325 325 325 325 324 325 326
329 329 330 330 330 330 331 330 329 329 330 329 329 328 327 328 327 325 325 325 326 327 326 324 323 326 326 328 328 328 328 329 330 329 329 329 328 328 334 340 340 341 339 338 339 337 336 336 335 334 334 333 334 334 333 332 331 331 330 330 329 329 329 328 328 328 327 327 327 327 327 326 326 326 326 325 325 325 325 325 325 324 324 325 325
330 329 329 328 329 329 329 328 328 329 329 329 329 327 328 329 330 329 329 329 328 325 324 324 323 325 325 327 326 328 328 328 329 329 329 329 330 329 330 335 341 341 339 339 338 338 336 336 335 335 335 335 335 335 334 333 332 331 331 330 329 328 328 328 328 326 328 327 327 327 326 326 326 326 326 326 326 325 325 325 325 325 325 325 324
329 329 330 326 327 328 327 326 326 329 327 328 329 327 329 329 328 328 328 327 326 325 326 324 324 323 325 326 327 329 329 328 328 329 330 331 330 330 330 332 335 339 338 341 339 339 338 336 334 336 335 336 337 336 335 335 334 332 331 329 329 328 328 328 328 328 327 327 327 326 326 326 326 326 325 325 325 325 325 325 325 325 324 324 324
329 328 326 325 326 326 326 325 325 326 328 329 327 327 328 328 327 328 330 325 324 321 321 324 323 324 324 326 326 326 326 327 328 328 329 331 330 329 330 330 330 331 334 340 340 339 338 339 334 334 333 337 337 337 337 336 336 333 332 330 329 328 328 328 328 327 328 327 327 327 326 326 326 326 325 325 325 325 325 325 325 324 323 323 323
329 327 325 324 324 324 323 325 327 326 329 328 328 327 327 327 327 326 325 327 327 326 322 322 323 323 325 326 328 329 329 328 328 328 329 329 329 329 330 330 329 331 330 328 337 339 338 339 337 336 333 337 336 336 337 336 337 334 333 332 331 329 329 328 328 328 328 328 327 326 326 326 326 326 325 324 325 324 324 324 324 324 323 323 323
329 327 325 324 324 324 324 326 327 327 327 326 327 326 325 326 325 325 326 327 327 325 324 322 322 323 325 326 327 329 329 330 330 330 330 329 330 329 329 329 328 329 334 327 328 333 337 338 337 337 338 335 336 336 337 334 335 335 334 334 333 331 330 329 329 329 328 328 328 327 326 326 325 325 325 324 324 324 324 324 324 323 323 323 322
329 328 326 325 324 325 325 328 328 327 326 322 322 324 325 326 324 324 326 327 327 326 324 321 322 324 325 326 326 328 329 331 330 327 329 327 326 328 328 328 331 338 326 326 326 329 336 338 338 338 338 338 339 331 331 337 337 336 335 336 334 332 332 331 330 330 329 328 328 327 327 326 326 325 325 324 324 324 324 324 324 323 323 323 322
328 328 325 325 324 325 327 329 328 326 323 322 322 323 324 326 324 326 326 324 323 323 321 321 324 324 324 325 326 328 329 330 330 330 327 328 329 328 327 327 328 327 326 326 327 328 329 333 336 336 338 337 338 339 337 335 335 335 335 335 336 334 332 333 332 331 330 329 329 329 327 327 326 326 325 325 324 324 324 324 323 323 323 323 322
329 329 327 327 326 327 329 327 327 324 325 324 324 325 325 323 325 325 325 321 322 321 322 322 324 324 325 326 326 327 328 329 329 329 330 332 332 332 331 329 330 329 326 326 326 327 326 326 326 328 331 335 336 337 337 336 337 335 335 334 334 334 334 334 335 333 332 331 330 330 329 328 327 327 325 324 325 324 325 324 323 323 323 322 322
329 328 328 327 326 326 327 328 326 326 324 324 323 323 324 324 325 326 324 324 324 322 320 323 323 324 325 325 327 327 327 328 328 328 328 328 329 329 329 329 329 329 329 328 327 327 327 327 329 326 327 331 334 333 333 333 332 334 335 333 332 333 333 332 332 331 333 333 332 331 330 329 328 328 327 326 325 325 325 325 323 324 323 323 323
329 328 328 331 327 326 326 325 325 326 325 323 323 323 324 325 325 325 323 320 322 324 321 320 321 319 321 321 322 325 327 326 326 327 328 328 328 328 328 328 329 328 327 328 328 327 326 325 325 325 325 324 327 332 331 330 331 332 333 334 333 335 334 333 333 331 332 333 332 332 331 330 329 329 328 328 326 325 326 326 325 324 323 324 323
329 328 329 327 326 325 326 325 324 323 324 323 321 327 325 325 324 322 321 320 321 324 322 317 315 315 316 316 319 322 324 323 324 326 328 328 327 328 328 326 327 327 328 328 330 328 326 325 324 324 325 325 325 326 327 325 327 330 331 331 333 334 334 336 334 334 333 331 330 333 331 331 331 330 329 329 329 327 326 326 325 325 323 323 323
328 329 327 326 326 325 325 323 324 327 324 323 323 322 323 324 322 323 321 322 322 323 320 317 313 314 313 315 313 314 318 320 323 325 327 327 328 328 330 329 328 328 330 330 328 328 328 326 324 324 326 327 327 328 327 327 327 328 328 330 333 333 334 334 333 334 333 331 332 331 329 330 330 331 330 330 330 330 328 327 326 325 325 324 323
327 328 326 325 325 324 324 323 324 325 323 322 321 321 322 322 321 320 320 318 317 319 322 320 316 318 311 308 310 311 311 314 317 321 326 327 327 326 328 328 327 327 327 326 326 326 327 328 327 327 328 329 329 327 325 324 326 325 325 327 330 333 333 333 333 334 334 333 332 331 327 328 332 331 331 331 331 330 329 329 327 326 325 325 325
324 325 326 323 321 322 323 322 323 322 322 322 321 322 322 321 321 320 316 318 315 317 321 322 319 317 315 311 307 305 305 313 317 317 323 324 325 327 328 327 325 324 325 326 327 328 328 327 326 325 324 325 324 322 320 319 319 323 321 324 326 331 333 334 333 334 334 333 333 332 331 331 330 331 330 329 330 331 331 330 329 327 327 326 326
320 322 325 323 321 320 320 322 321 324 321 321 321 322 320 321 322 321 316 316 319 315 317 319 319 321 316 312 310 308 310 314 313 311 320 323 325 326 326 325 325 324 325 326 327 328 328 325 325 323 322 321 320 319 319 319 321 318 318 320 321 324 326 333 334 335 335 334 333 332 332 328 327 329 328 328 328 328 330 331 329 329 329 328 327
319 319 319 321 321 319 319 320 320 320 323 321 321 323 323 323 322 321 321 319 317 314 317 316 316 318 319 317 318 315 317 312 307 314 313 318 322 323 324 326 326 325 325 326 327 325 325 323 319 318 316 315 314 314 314 315 318 320 322 320 321 319 319 322 330 334 334 334 335 335 333 331 329 329 328 328 328 328 328 329 330 329 330 330 329
318 317 318 321 321 319 318 318 320 320 323 320 321 321 323 323 323 320 320 321 319 319 316 315 316 316 316 317 318 317 315 312 315 314 314 313 316 322 324 325 325 326 326 326 325 324 321 318 316 314 313 312 311 311 311 312 312 313 315 318 319 319 318 318 317 319 330 335 335 334 333 332 332 331 330 329 329 328 329 329 328 329 328 329 329
317 317 316 320 323 319 317 317 317 319 321 321 319 320 321 321 320 319 319 316 317 318 319 316 314 315 315 314 315 314 315 315 313 313 314 315 315 317 318 323 324 325 325 325 322 319 316 315 315 312 312 310 309 310 310 310 310 311 315 316 317 317 317 316 314 314 316 328 330 331 331 329 330 328 326 325 325 326 328 328 328 329 329 329 328
316 315 315 315 317 319 318 317 317 319 321 318 317 318 317 317 317 318 317 318 317 319 319 315 314 314 315 314 312 312 313 312 311 314 315 316 314 315 318 317 316 320 323 320 316 313 312 310 309 309 308 308 309 309 309 310 310 311 313 315 315 315 315 314 310 313 316 319 325 326 326 326 325 324 322 322 322 321 321 321 323 323 325 326 327
314 314 314 316 317 319 317 317 319 320 319 318 317 318 316 316 316 317 317 318 316 317 316 314 314 314 313 314 314 316 312 309 312 311 312 314 315 315 317 318 318 317 318 317 313 310 309 309 308 307 307 307 307 308 308 309 313 314 314 314 315 314 313 310 308 309 314 319 322 323 323 323 322 323 322 321 320 320 320 319 319 320 320 321 321
312 313 313 314 317 317 317 316 317 315 315 314 314 315 314 314 314 315 315 314 316 318 315 314 312 312 313 313 313 313 310 313 314 313 315 315 316 315 315 317 317 317 318 313 309 307 306 306 307 306 307 307 307 308 308 307 311 313 310 314 313 312 314 312 308 307 306 312 317 320 320 320 319 318 318 317 317 316 316 316 316 315 315 316 318
312 313 311 312 315 315 315 315 313 313 313 313 312 312 312 312 312 311 310 311 312 314 314 312 313 314 313 312 313 314 313 314 315 314 315 317 317 315 315 314 313 314 316 310 307 308 307 307 307 307 307 306 307 306 306 306 306 311 310 310 311 310 311 313 312 309 306 306 309 315 316 315 315 315 315 314 314 313 312 311 308 308 309 310 311
312 312 311 312 312 313 313 312 311 312 312 310 310 311 310 310 309 309 309 308 309 309 309 307 307 308 310 312 311 313 313 316 315 316 316 316 315 314 313 313 314 314 312 306 308 305 307 307 307 307 307 306 304 303 303 305 304 311 310 305 307 308 308 308 310 309 306 304 305 308 311 312 312 312 311 311 310 309 308 306 306 306 307 308 308
313 313 313 312 311 311 312 312 311 310 310 310 311 309 309 311 310 310 310 309 309 309 307 308 309 307 308 310 311 312 315 315 316 316 317 316 316 314 314 310 310 306 303 304 302 303 304 305 306 305 305 306 303 302 302 302 308 310 308 302 302 308 307 308 310 310 308 304 303 303 304 306 307 308 308 308 308 308 308 308 306 304 306 308 309
311 312 312 311 311 312 311 310 309 309 309 309 309 308 308 309 308 308 309 311 309 308 307 307 307 306 307 307 311 311 314 316 316 316 316 316 315 313 313 312 309 303 300 302 299 302 305 304 306 305 305 304 303 303 307 307 304 310 307 300 299 302 305 305 306 307 306 306 305 304 303 302 304 306 307 308 308 308 308 307 306 305 305 307 309
313 311 310 309 310 311 310 309 308 308 308 308 307 307 307 308 308 307 307 306 308 306 305 307 305 306 306 306 307 307 309 314 316 316 315 314 314 312 314 312 310 306 299 298 299 299 304 303 303 305 305 304 303 304 305 302 306 305 300 299 298 298 305 306 304 303 303 303 303 303 303 304 305 307 308 308 307 306 306 306 306 305 305 306 307
313 312 310 310 313 314 308 307 306 307 307 306 306 306 306 306 305 306 305 306 308 306 307 306 305 306 307 306 306 307 306 311 314 315 314 314 312 312 311 308 308 307 300 301 301 299 302 303 300 304 304 304 304 304 303 302 310 305 301 298 297 299 306 305 304 302 302 302 300 299 300 302 303 306 307 307 305 305 305 305 305 305 305 304 304
312 310 309 309 307 306 307 306 306 306 305 305 305 305 306 306 307 305 305 305 306 305 304 306 306 306 305 305 304 305 305 306 307 309 311 312 312 311 310 308 306 305 306 302 300 301 302 304 302 300 305 304 306 303 305 304 308 307 301 299 299 305 307 304 304 304 303 304 301 301 305 306 304 305 305 307 306 306 305 305 306 305 304 303 303
309 309 309 308 308 307 307 307 306 305 305 305 305 305 305 305 305 307 304 304 306 304 303 305 307 305 305 305 304 303 304 305 305 305 306 309 311 310 310 309 305 305 306 303 301 303 300 303 299 300 305 305 306 304 303 306 308 311 302 300 301 308 302 299 304 304 304 303 302 302 304 305 304 305 306 305 301 304 304 300 304 303 303 301 301
308 308 308 308 309 309 308 309 307 305 305 305 305 305 305 305 304 304 304 304 305 304 305 304 305 305 306 305 304 305 304 304 303 304 305 305 308 310 310 307 305 304 305 301 300 298 299 297 298 301 304 305 305 304 304 303 303 305 305 300 302 300 299 297 297 302 302 302 302 301 301 301 300 302 300 298 299 299 300 300 302 304 302 300 299
308 308 307 308 309 309 308 308 307 307 306 306 306 305 305 305 305 306 304 304 304 303 303 303 303 306 304 305 305 304 304 304 303 304 303 304 305 307 306 306 304 303 304 299 297 298 300 298 299 299 301 304 303 302 305 302 301 304 305 301 300 300 298 297 296 297 301 302 301 301 302 301 301 301 299 299 299 300 300 300 298 298 301 299 297
308 309 309 309 309 308 309 309 308 307 307 307 306 306 305 305 305 305 305 303 303 304 304 304 305 304 304 305 303 304 306 304 302 302 303 303 302 303 303 303 303 302 301 298 296 296 298 297 297 298 299 300 302 300 301 301 301 304 304 302 300 301 302 299 297 297 299 300 300 301 301 301 301 300 299 300 300 300 300 300 299 299 297 298 297
309 308 309 309 308 308 309 308 308 308 308 308 307 307 307 305 305 305 304 304 303 303 303 304 304 304 303 304 304 303 304 304 302 303 303 303 302 302 301 300 300 300 299 298 299 295 295 298 297 299 299 299 300 299 300 301 299 301 303 301 300 299 300 301 298 298 300 301 301 301 301 302 300 300 299 299 300 300 300 299 300 299 298 298 298
309 309 308 308 308 308 310 309 308 307 307 307 307 307 307 306 305 304 304 303 303 303 304 304 311 304 304 303 305 303 303 304 303 303 303 303 304 304 303 301 300 301 301 299 298 297 297 298 298 298 298 298 298 298 300 300 300 301 301 300 300 299 300 301 302 303 302 301 301 302 301 300 300 300 300 300 300 299 299 299 300 301 301 300 299
308 309 309 308 309 308 308 308 308 308 308 307 306 307 307 306 306 305 305 304 304 304 304 305 307 304 304 304 304 303 304 304 303 303 303 303 304 303 303 303 303 302 301 300 298 298 298 297 298 298 300 300 298 299 300 301 302 301 301 300 300 301 300 301 301 303 301 300 298 299 300 299 300 299 300 299 299 299 299 300 300 301 301 300 299
311 310 310 310 309 309 309 308 308 308 309 308 306 306 307 306 306 305 305 306 307 305 305 306 307 306 305 305 305 305 304 304 304 303 303 303 304 302 302 302 302 302 301 300 299 298 297 297 299 299 299 299 297 299 301 301 301 300 301 298 298 299 298 297 300 300 299 299 298 299 298 298 300 300 299 299 300 301 300 300 301 301 300 299 298
311 312 311 310 309 309 309 309 309 308 308 308 306 306 307 308 307 305 306 307 308 309 308 308 308 307 307 306 306 306 305 305 305 303 304 304 302 302 301 301 301 301 301 301 300 298 297 298 298 298 296 297 298 298 300 300 300 298 298 295 297 296 297 296 297 296 298 297 297 297 298 298 298 299 298 299 301 300 300 299 301 301 300 299 298
312 312 312 311 310 309 308 309 309 309 310 311 310 308 308 307 307 308 308 309 308 309 309 309 309 309 308 307 306 306 308 313 310 308 308 308 305 303 301 300 300 301 299 300 301 299 298 299 298 296 297 298 297 299 297 297 296 298 295 294 293 295 294 295 297 296 297 294 295 294 295 296 296 296 296 296 298 299 297 299 299 300 298 297 297
310 311 310 310 310 311 310 310 309 310 311 311 312 308 309 311 310 311 310 310 310 310 310 309 308 308 308 308 308 319 315 312 308 303 301 304 307 306 304 302 302 301 300 300 300 300 301 299 299 298 298 298 296 299 297 294 294 294 296 294 295 294 290 291 293 293 296 294 293 294 294 296 295 295 295 295 296 297 295 295 296 297 297 297 297
310 310 309 310 309 310 310 310 310 310 312 312 306 302 301 304 311 311 311 311 310 311 311 311 311 311 309 309 308 313 312 312 307 300 299 299 300 301 302 303 305 304 302 300 300 300 301 301 299 298 297 297 295 294 294 296 294 296 294 294 294 292 292 292 293 292 294 294 292 290 293 294 294 294 293 294 295 295 295 295 297 297 297 296 296
308 308 308 307 308 307 308 308 309 310 311 310 302 301 300 300 305 313 312 311 311 310 311 311 311 310 311 310 309 308 306 307 307 305 302 299 299 298 298 298 299 300 302 304 302 299 298 300 298 299 298 298 296 296 294 294 295 294 293 293 291 291 290 289 289 290 293 294 289 288 290 292 292 292 292 293 294 294 295 296 296 296 296 296 296
308 309 307 307 307 307 308 308 307 308 308 304 298 298 299 299 300 308 312 312 311 310 310 310 310 310 309 309 309 309 310 314 312 303 303 301 298 297 296 296 296 298 297 297 299 304 303 302 301 297 298 297 297 296 297 296 295 295 292 292 290 289 288 288 288 287 290 293 288 287 288 290 290 290 291 293 293 293 293 295 296 296 296 296 295
308 306 306 307 306 307 307 308 307 307 307 303 296 296 297 297 297 302 311 311 311 311 311 311 310 310 309 309 309 309 309 309 307 302 301 300 298 298 298 297 297 297 295 295 296 298 301 304 302 300 298 299 300 298 300 296 295 294 292 291 290 290 289 290 289 290 291 293 290 288 287 288 289 288 288 291 292 292 292 294 295 296 295 295 295
305 305 305 306 305 304 306 308 308 308 310 304 296 294 294 294 294 294 308 308 308 309 309 310 310 311 310 310 310 310 310 310 309 304 301 300 299 299 297 296 296 296 297 298 299 300 301 301 302 301 300 299 300 301 299 296 296 294 293 292 291 290 290 288 288 289 290 291 288 288 288 286 285 289 288 289 290 290 290 293 295 296 295 295 295
303 304 303 303 302 304 307 306 305 308 309 299 295 294 294 294 293 300 307 309 308 309 308 309 309 310 309 309 309 308 309 309 307 298 300 301 300 300 297 294 294 295 294 294 292 294 299 301 301 301 300 299 298 299 297 295 293 293 293 292 291 290 289 287 288 286 288 290 288 286 285 284 284 287 287 288 287 288 290 287 292 295 296 295 294
300 301 302 302 303 303 304 305 305 307 307 302 295 295 294 293 295 302 306 307 307 308 309 308 309 308 308 308 308 308 308 308 304 296 296 298 301 300 298 296 295 295 293 293 293 293 294 295 295 295 294 293 293 293 293 293 293 292 291 291 288 286 286 286 287 284 287 285 287 287 285 284 284 284 287 286 286 288 289 288 288 292 295 295 295
297 298 299 299 301 302 302 305 304 304 306 304 298 296 295 293 296 305 306 306 307 307 308 307 306 306 307 309 312 309 308 308 301 296 294 299 301 300 299 297 296 295 292 293 294 293 292 292 292 291 291 291 292 292 292 292 292 294 290 288 289 286 287 285 285 286 284 285 287 289 285 285 283 283 285 285 285 284 286 285 287 291 293 293 293
295 295 297 297 297 298 299 301 306 305 304 305 300 296 295 294 296 302 306 306 306 306 306 307 306 305 305 306 307 307 308 306 299 296 294 298 303 301 300 299 297 296 295 293 295 294 293 293 292 292 291 293 293 292 292 293 293 294 289 289 288 288 287 286 286 285 285 284 286 288 285 282 283 283 284 284 281 283 283 285 288 289 289 290 290
Wind_Speed
4 4 4 3 3 2 2 2 2 2 2 3 3 4 3 2 3 4 3 3 3 3 2 3 3 3 4 5 5 5 5 5 4 4 3 3 2 4 8 7 5 8 12 11 11 11 11 9 8 7 7 6 6 6 6 6 6 6 6 6 6 6 6 6 5 6 6 6 6 7 7 6 6 6 6 6 7 7 8 8 7 7 7 8 8
4 3 4 4 3 2 2 2 2 2 2 3 2 3 4 3 2 2 3 2 3 2 2 3 3 3 2 4 4 5 5 5 4 4 3 3 3 1 6 5 4 3 10 10 11 10 9 9 8 7 6 7 6 6 6 6 6 6 6 5 5 5 5 5 5 5 5 5 5 6 7 7 6 6 6 5 6 6 7 9 8 6 6 7 7
4 4 4 4 3 2 3 2 2 2 2 3 2 4 3 3 3 2 2 2 2 1 2 3 3 2 2 3 3 4 4 4 4 4 4 3 2 2 1 4 4 2 1 8 8 10 9 8 9 9 8 7 6 6 6 6 5 5 5 5 5 4 4 4 4 4 4 4 4 4 5 5 5 6 6 5 5 6 6 7 8 6 6 7 7
5 4 4 4 3 3 3 3 2 1 2 3 3 3 4 4 3 2 3 2 2 2 1 3 3 2 2 3 2 2 3 4 4 3 3 3 3 2 2 0 4 2 2 4 10 9 8 8 8 8 9 8 7 6 6 6 6 5 5 4 4 4 3 4 3 3 4 4 4 4 4 4 5 5 5 5 5 5 5 6 8 7 6 7 7
4 4 5 4 4 3 2 2 2 2 2 3 4 3 3 4 3 2 3 3 3 2 2 3 3 2 1 2 3 3 2 3 3 3 3 3 3 2 2 1 1 3 1 6 6 9 8 7 7 8 7 7 7 7 7 7 6 6 6 5 4 4 4 4 4 3 3 3 3 3 3 4 4 4 4 4 4 5 4 6 7 7 7 6 6
5 4 4 4 3 3 3 3 2 2 2 3 3 3 3 3 2 2 3 3 3 2 2 4 3 2 1 1 1 2 1 2 2 2 3 4 3 3 3 2 1 1 1 6 5 5 6 4 5 7 5 8 8 7 8 8 8 7 7 6 5 5 4 4 4 4 4 3 3 3 3 4 3 4 4 3 4 4 5 5 6 7 6 6 6
4 5 4 4 4 4 3 3 3 2 3 2 4 2 3 3 2 4 3 3 3 2 2 3 2 1 1 1 2 2 3 2 2 2 3 4 3 3 3 2 2 2 3 3 3 6 7 6 5 3 2 8 6 5 8 7 8 8 8 7 7 6 5 4 4 4 4 3 3 3 3 3 3 3 3 4 4 4 5 5 5 5 5 5 5
4 4 4 3 4 4 3 3 3 3 3 2 3 3 3 3 1 2 4 4 4 3 2 3 2 1 2 3 3 3 3 3 2 3 3 3 4 3 2 2 2 3 4 3 3 3 6 5 5 2 5 4 7 6 6 4 5 8 9 8 8 7 6 5 5 4 4 4 3 3 3 2 2 2 2 3 3 3 4 3 4 3 4 4 4
3 3 4 4 3 3 2 3 3 3 3 2 2 2 4 3 1 2 2 4 4 4 2 2 3 3 4 5 5 4 4 4 4 3 2 3 3 2 2 1 1 5 3 3 3 4 6 7 6 6 7 9 5 1 3 9 8 8 7 8 7 6 5 5 5 5 4 4 3 3 3 3 2 1 2 2 2 2 3 3 3 3 3 3 4
3 3 3 3 3 3 3 4 3 4 3 2 2 2 3 3 3 2 3 4 3 4 3 3 3 4 4 5 5 4 4 5 4 5 4 4 5 3 1 2 4 3 2 2 4 5 5 7 9 9 9 10 10 9 8 1 6 6 6 6 6 6 5 6 6 5 5 5 4 4 4 3 3 3 2 2 2 2 2 2 2 1 2 2 2
3 3 4 3 3 3 4 3 3 4 3 2 2 2 2 2 4 2 2 2 4 2 3 4 4 4 5 6 6 6 5 5 5 4 4 4 4 2 2 4 4 2 1 2 3 4 5 4 4 4 6 11 11 11 11 12 11 5 4 4 3 5 7 7 7 6 6 6 5 5 6 5 5 4 3 3 3 2 2 2 1 1 1 0 1
3 3 3 4 4 4 4 4 3 4 4 3 2 2 4 4 4 4 4 4 3 1 3 5 5 6 7 7 6 5 7 6 6 6 5 5 1 1 3 3 4 3 3 3 3 4 4 4 4 4 4 7 12 12 10 7 6 7 5 5 6 7 7 5 4 3 6 7 7 6 7 6 6 5 4 4 4 4 3 3 3 2 2 2 1
3 4 4 4 4 4 4 3 3 4 4 4 4 3 4 4 4 3 4 3 2 1 1 2 6 5 5 6 6 6 7 7 7 7 5 5 1 2 3 3 3 3 2 3 3 3 4 4 4 4 4 4 6 12 10 6 5 7 6 3 5 7 7 5 3 5 7 5 5 7 7 8 6 6 7 6 5 5 4 4 5 4 3 2 2
4 3 4 4 4 4 4 4 4 3 3 3 3 3 3 4 4 2 1 3 2 2 3 2 2 3 5 3 5 5 5 7 7 6 6 5 3 2 1 3 1 2 3 2 3 4 5 4 4 3 3 4 3 3 2 1 3 7 8 6 7 6 8 5 8 4 5 6 8 8 6 7 7 8 7 7 6 6 6 5 5 5 4 4 3
4 4 5 4 5 5 4 4 3 4 4 3 4 4 4 5 4 4 3 2 2 1 2 0 2 2 2 5 1 3 3 5 6 7 6 5 3 3 3 3 2 2 2 3 3 4 6 4 3 3 3 4 5 4 2 3 3 8 10 8 6 6 4 6 3 5 6 4 5 3 4 8 6 8 8 8 7 7 7 6 6 5 5 5 5
3 3 3 4 5 5 5 5 5 4 5 5 4 5 4 4 4 3 4 4 1 0 0 1 2 6 2 1 2 2 3 4 4 3 4 5 4 4 3 4 4 4 4 4 4 4 5 5 5 4 4 5 6 5 3 3 6 9 9 8 9 8 5 2 2 2 3 3 3 3 5 6 9 9 8 8 8 7 7 6 6 7 6 6 6
4 4 4 4 3 4 4 4 4 3 4 5 4 5 4 4 5 4 3 5 3 1 1 1 3 1 5 4 3 1 1 2 4 3 3 4 5 3 4 5 5 4 3 5 6 5 5 7 6 5 6 5 5 4 3 3 4 5 6 9 9 8 5 3 1 2 1 1 1 2 4 5 5 5 5 6 8 8 7 6 6 7 8 7 6
2 3 4 4 4 3 3 3 3 3 2 3 3 3 3 3 4 5 3 1 4 3 1 0 1 0 2 2 3 2 6 4 2 1 2 4 3 4 6 6 4 4 4 5 6 6 6 6 5 5 4 4 4 3 4 3 4 3 4 7 9 8 8 6 5 4 2 2 1 1 3 3 5 6 5 7 6 11 10 7 3 8 7 6 6
2 2 3 3 4 3 3 2 2 3 2 3 3 4 4 3 3 4 4 3 3 3 4 2 2 1 2 1 1 2 6 6 2 3 4 2 4 4 5 6 5 5 5 5 6 6 5 5 4 4 5 4 4 4 4 4 6 6 10 9 9 10 9 9 10 10 8 8 8 8 8 5 3 5 2 1 5 5 10 6 4 5 7 8 8
2 1 3 3 4 4 3 3 3 2 3 4 4 3 4 2 3 3 3 4 4 5 4 3 5 2 2 3 4 5 3 2 4 5 5 5 3 5 5 6 4 4 3 5 5 5 5 5 4 5 4 4 4 4 5 4 4 5 5 8 7 10 11 11 11 9 13 15 15 14 15 16 16 14 13 13 13 13 9 8 6 4 3 6 7
2 3 3 3 3 4 3 3 3 3 2 3 2 3 4 5 4 4 4 3 3 3 4 5 3 4 5 3 5 4 5 5 4 3 4 5 6 3 4 4 5 4 5 6 6 5 5 4 4 4 4 4 4 4 5 5 4 4 5 8 8 10 10 12 13 15 15 16 18 18 18 18 17 17 16 16 16 16 15 14 14 12 11 9 4
3 3 3 3 3 3 3 3 4 3 3 3 3 3 3 3 3 4 4 4 2 4 4 3 3 2 3 5 4 3 4 4 3 6 5 4 6 6 6 6 5 4 6 5 6 5 5 4 4 4 4 4 4 4 4 4 3 4 6 10 9 9 10 12 14 14 14 14 16 18 18 18 18 17 17 16 17 16 16 16 16 17 16 15 14
3 3 3 3 4 3 4 3 3 3 3 3 3 3 3 3 3 4 4 5 5 4 3 2 1 2 3 5 6 7 6 4 6 4 5 5 6 7 6 4 6 6 4 5 5 4 4 4 4 3 3 3 3 4 4 3 4 6 9 9 9 9 10 11 13 13 14 14 14 16 17 17 17 17 16 16 16 16 16 17 17 16 15 15 15
3 3 3 3 4 4 4 4 4 3 3 3 3 3 3 3 3 4 3 3 4 4 3 3 2 2 1 3 4 4 2 5 6 6 8 8 8 8 6 6 6 4 3 3 3 4 4 3 3 2 2 2 2 2 3 4 5 9 6 9 8 10 10 11 12 12 12 13 13 14 15 15 15 15 15 15 15 15 15 15 15 15 15 15 15
3 4 3 3 4 5 4 5 3 3 3 3 3 3 3 3 3 3 3 4 4 5 5 3 4 4 3 1 4 3 3 4 5 6 6 7 9 9 5 1 5 6 1 2 1 2 3 3 2 2 1 1 2 3 3 4 3 6 6 6 9 8 9 10 10 10 11 11 12 12 13 14 14 15 15 14 14 14 14 13 12 12 11 13 14
4 4 2 3 3 3 4 4 3 3 3 3 3 2 3 4 3 4 4 3 4 5 5 3 3 3 3 5 2 5 5 5 6 8 9 9 8 9 8 5 4 4 1 2 0 2 1 2 2 2 2 1 1 2 3 3 3 6 6 5 6 8 9 9 9 8 9 9 10 10 10 11 12 13 13 13 12 12 11 11 11 11 11 11 12
6 4 3 4 4 4 4 4 4 3 3 3 3 3 3 3 3 4 4 4 5 6 4 5 4 3 2 4 4 5 5 5 7 7 7 8 9 9 11 11 3 2 2 1 1 2 1 1 1 1 1 0 0 1 2 2 3 6 5 4 4 7 8 8 8 8 7 7 8 8 8 8 8 8 8 8 8 8 10 10 10 10 10 10 11
3 4 2 4 5 5 4 4 3 3 3 4 3 3 3 5 4 4 4 2 6 6 4 5 5 4 4 3 4 4 4 6 6 7 7 7 7 7 6 9 11 4 1 1 1 1 1 1 0 1 2 1 1 0 1 1 2 4 5 3 4 5 8 8 8 7 6 5 6 6 6 7 7 7 7 7 8 8 8 8 8 8 8 9 10
4 3 4 3 4 5 5 4 4 4 4 3 3 3 3 4 4 4 5 3 5 4 3 6 3 4 4 3 5 5 4 5 6 7 6 5 5 5 4 8 8 9 3 2 2 2 2 2 2 2 3 2 2 1 0 0 0 3 3 3 3 3 5 6 6 5 5 5 5 5 5 5 6 7 8 8 8 7 7 6 6 7 7 9 9
4 3 4 4 4 4 5 4 3 3 4 3 3 3 3 4 3 3 2 2 5 3 3 4 3 3 3 3 3 4 3 5 7 6 7 6 6 6 5 3 4 10 6 7 5 3 2 1 1 2 2 3 1 1 0 1 1 2 2 2 2 2 4 4 4 4 4 4 5 4 4 4 5 5 6 5 5 5 5 6 5 5 6 7 7
4 4 4 4 4 4 4 4 3 3 3 4 4 3 3 4 3 3 2 2 5 4 3 3 2 3 5 5 3 3 2 4 5 4 4 6 7 6 5 5 3 3 8 5 5 4 3 5 4 2 4 3 2 1 0 1 0 2 1 1 1 1 2 2 3 4 4 4 4 5 4 4 4 4 4 4 5 4 4 5 4 4 5 4 5
3 4 4 4 4 4 3 4 4 3 3 3 3 3 3 3 2 3 2 3 5 4 4 3 3 4 5 5 3 2 1 3 3 4 6 5 6 6 6 6 5 4 5 6 5 6 5 4 4 3 4 4 3 4 2 1 0 4 1 1 0 2 1 1 3 3 4 4 5 5 6 6 6 5 5 4 3 4 3 3 3 2 2 3 2
4 4 4 4 4 4 4 4 4 4 4 3 1 3 3 2 2 2 2 3 5 2 4 4 3 4 4 4 3 2 1 4 3 3 2 3 5 6 6 6 6 5 5 4 5 3 1 1 2 3 3 4 3 3 3 2 0 1 2 1 0 0 0 1 1 3 3 4 5 5 6 7 7 6 4 3 3 4 4 3 3 2 3 3 3
3 4 4 3 3 3 4 3 3 3 3 2 2 2 3 2 1 2 2 3 3 2 3 4 3 3 4 5 4 4 3 5 4 3 2 1 3 5 6 7 7 7 4 4 2 4 6 0 1 1 3 2 3 3 5 5 2 1 2 1 1 1 1 1 2 2 3 4 4 5 6 7 7 7 6 5 5 5 4 4 5 5 5 5 5
3 5 5 4 4 4 3 3 3 2 2 2 1 2 2 2 1 0 0 2 3 3 3 2 2 2 5 5 3 2 2 4 3 2 3 3 2 2 3 3 6 7 6 4 4 2 6 4 2 3 3 2 4 2 2 1 3 4 4 3 2 1 1 1 1 1 3 4 5 5 6 7 8 8 7 8 9 9 10 8 4 6 7 7 6
5 4 5 5 4 4 4 3 3 3 2 1 1 1 2 3 2 1 1 1 1 2 3 3 2 3 4 4 2 3 3 4 3 3 2 3 3 4 4 3 3 4 3 2 1 5 3 5 3 5 4 4 3 0 2 1 2 2 2 1 1 1 0 1 0 1 2 3 3 4 6 7 8 7 8 9 10 11 11 11 9 7 6 7 7
4 4 3 4 5 4 5 4 3 3 3 3 2 1 1 2 3 2 1 1 2 2 3 3 4 4 3 4 4 3 3 4 2 3 2 3 3 4 5 4 5 4 3 3 3 3 6 6 4 2 2 1 1 1 3 4 2 3 2 1 0 1 1 0 1 2 4 6 8 8 6 6 7 7 9 10 10 10 10 11 10 9 7 4 6
4 4 4 2 3 4 4 4 4 4 3 4 4 4 3 2 2 2 1 1 2 2 2 2 1 1 2 1 1 3 4 4 1 1 1 3 2 3 4 3 4 4 4 3 3 4 5 6 6 4 1 4 1 0 2 3 6 4 4 3 3 4 4 5 5 4 3 3 3 3 4 4 5 7 11 10 10 10 10 11 11 10 9 6 3
5 4 4 4 3 4 4 4 4 4 4 4 4 4 3 3 4 3 2 1 1 2 3 2 1 0 0 1 1 1 3 3 4 3 3 2 3 3 3 4 3 4 4 4 4 5 5 4 1 1 3 2 2 2 2 2 3 4 6 4 3 3 4 3 2 3 3 3 2 1 4 5 7 8 11 12 12 12 12 11 12 12 11 10 6
5 5 5 4 4 3 4 4 4 3 3 3 3 4 4 4 4 4 4 3 2 1 2 1 1 2 1 2 2 3 3 4 4 4 4 4 2 4 2 3 4 4 4 4 4 5 5 4 3 3 1 2 2 2 2 3 4 2 1 3 6 3 2 2 1 2 1 3 6 5 5 7 8 9 10 10 12 12 13 10 13 14 14 13 11
4 4 4 4 4 3 3 4 4 4 4 5 4 4 4 4 4 4 4 4 4 3 2 1 1 1 2 2 3 3 3 4 6 6 6 5 5 3 1 3 4 4 3 4 5 5 4 5 2 2 3 3 3 6 4 3 4 7 1 2 2 1 0 1 1 3 2 1 1 1 2 3 5 6 5 6 7 8 9 10 9 13 15 14 14
4 4 4 4 5 6 5 4 4 4 5 4 6 9 8 6 6 5 4 4 5 4 5 4 3 3 3 3 2 5 6 7 7 7 7 7 4 4 7 5 5 4 5 4 4 6 6 6 6 6 4 6 5 5 5 2 2 3 5 4 4 0 1 2 0 0 2 1 2 5 5 4 3 5 5 6 4 5 5 6 5 7 11 13 14
1 1 4 4 4 4 5 5 5 6 6 5 9 10 11 10 6 5 6 6 4 5 5 6 6 5 4 4 3 3 4 5 5 8 8 9 8 5 6 7 6 7 6 4 4 5 6 6 4 4 6 5 3 2 3 5 2 4 5 4 5 2 2 1 0 1 2 5 3 3 5 5 3 5 3 5 4 5 5 5 7 10 11 11 11
2 2 3 3 3 4 4 4 5 6 6 7 11 11 12 12 9 7 6 6 5 6 6 6 6 5 6 5 4 3 3 4 4 5 6 6 5 6 7 7 7 5 4 6 6 2 3 5 5 6 6 7 5 5 4 4 5 4 3 3 2 4 3 2 1 0 2 3 2 2 2 4 2 5 4 4 4 3 3 5 6 8 9 9 9
3 4 2 3 3 1 3 4 3 1 1 1 5 9 11 12 13 9 6 6 7 7 6 6 6 6 5 5 5 4 4 6 5 4 5 4 4 5 7 7 4 4 5 4 3 5 7 5 6 6 6 6 6 3 4 6 4 6 2 3 2 3 3 3 0 1 4 4 2 2 1 2 3 3 4 4 5 3 3 5 5 7 7 6 6
4 4 4 3 3 2 1 1 1 1 2 3 5 5 5 6 7 5 4 5 6 6 6 7 6 6 6 7 6 6 5 5 4 4 4 4 4 4 4 3 4 4 4 3 5 6 6 7 8 8 5 5 7 5 5 7 7 6 5 3 3 4 3 2 1 2 1 3 0 1 1 2 3 3 3 5 4 4 2 3 5 4 5 4 4
3 3 2 2 2 3 2 1 1 2 4 3 5 7 6 6 4 2 3 2 3 4 5 5 6 7 7 7 7 7 6 6 6 6 6 6 5 5 4 3 3 2 2 3 2 3 4 3 5 5 7 4 6 7 7 4 5 5 5 5 6 4 4 3 3 1 1 3 2 1 1 1 3 5 3 4 5 5 3 3 4 4 3 3 3
2 2 3 2 2 4 4 3 3 5 4 5 6 7 8 9 6 4 4 5 5 5 5 5 6 6 5 5 6 6 6 6 8 11 9 6 6 6 4 3 3 2 1 3 5 4 2 4 5 7 7 7 8 8 7 6 6 6 7 7 6 5 5 3 1 3 2 4 3 2 0 1 1 1 2 5 3 4 5 3 4 5 5 5 5
6 6 5 4 3 3 3 3 3 4 5 5 6 8 8 7 4 4 5 5 6 6 7 6 6 5 5 5 5 6 5 6 8 11 11 10 6 6 5 5 2 2 3 6 9 6 5 7 10 11 11 11 10 10 10 10 9 7 7 7 4 4 5 2 0 2 0 2 2 1 1 1 1 0 4 3 3 4 5 4 3 5 7 9 9
7 6 5 6 6 6 5 6 4 4 6 5 6 9 8 7 6 5 5 5 6 6 7 5 5 5 6 9 8 6 6 7 9 12 13 11 6 6 6 6 5 5 3 4 5 5 7 12 13 13 12 10 11 10 10 10 10 6 6 6 6 6 4 4 3 2 2 2 1 0 1 2 2 1 2 4 3 3 4 3 3 4 7 7 9
5 4 6 6 6 7 7 5 7 6 5 7 7 8 8 7 5 5 5 5 5 7 6 7 6 6 6 6 9 9 8 8 10 12 14 12 7 8 9 8 6 5 7 7 8 6 4 6 5 7 6 6 5 5 5 8 6 4 2 5 7 6 6 4 4 1 1 1 2 1 1 2 1 2 1 4 2 5 3 2 3 5 5 5 6
Wind_Direction
132 125 104 93 82 80 92 106 111 138 116 80 102 110 85 88 90 83 71 69 70 74 76 74 79 86 115 124 131 140 146 143 143 142 114 96 98 156 157 169 191 151 146 138 136 134 132 133 136 140 141 135 128 126 125 124 126 123 120 118 117 113 120 125 120 116 112 114 114 109 111 111 103 95 85 81 84 81 81 72 81 90 94 85 76
129 114 120 106 101 85 103 150 159 170 135 112 107 104 111 67 63 68 63 69 78 79 91 89 88 92 100 123 139 149 147 143 138 134 132 134 133 50 153 151 172 174 158 142 138 136 132 136 136 137 138 136 139 136 132 132 130 126 117 119 113 113 119 115 119 116 117 112 103 93 89 92 106 111 106 105 104 99 89 88 87 84 68 82 82
127 125 114 128 139 147 164 167 164 186 156 124 124 113 110 99 99 106 98 90 66 21 81 89 74 77 91 100 120 130 138 136 141 145 148 158 111 60 21 143 173 200 139 145 138 130 136 145 148 144 145 152 153 147 140 137 133 127 121 120 121 121 117 118 120 123 115 108 105 105 104 98 98 105 108 104 84 82 91 92 89 80 84 88 83
134 131 134 137 146 161 165 169 180 201 141 123 103 87 98 101 100 102 103 96 73 41 38 83 82 70 94 103 104 132 152 159 146 140 144 129 109 69 20 76 179 198 116 105 132 140 148 153 161 152 156 161 160 148 142 138 132 129 123 117 127 138 140 135 129 118 107 114 108 103 108 118 108 97 99 99 98 100 74 77 90 91 75 70 70
134 137 144 151 153 157 172 185 177 168 114 103 103 92 84 88 88 99 84 72 73 41 39 50 62 44 62 106 132 155 162 131 129 147 147 124 98 80 39 26 235 184 137 88 127 146 157 162 163 168 169 166 172 154 152 146 146 141 135 137 146 161 163 155 141 140 129 116 119 125 112 102 99 90 91 86 82 70 81 74 69 71 72 75 68
138 138 144 146 147 169 173 188 171 144 108 102 96 90 97 98 108 90 86 83 84 53 60 66 35 29 46 54 101 133 105 89 120 144 110 94 105 93 74 55 68 70 51 93 96 153 160 156 150 165 194 166 190 167 167 161 155 147 149 159 167 172 171 162 149 141 148 146 138 141 132 117 116 110 91 97 83 56 64 72 75 72 72 76 78
148 146 150 142 158 171 178 175 153 131 114 96 115 107 108 120 154 109 92 80 85 61 61 67 59 39 41 68 89 64 63 80 92 108 98 105 109 85 73 76 68 74 72 63 66 152 157 159 151 166 169 172 171 195 184 173 156 155 162 173 178 179 173 170 162 161 161 151 150 140 148 140 129 116 106 94 80 69 66 71 86 81 81 70 68
149 149 150 156 167 166 165 150 138 120 116 114 113 109 113 106 74 135 110 93 102 76 47 87 79 69 32 40 44 59 59 61 68 76 97 107 107 86 76 71 63 98 85 65 67 104 143 145 141 100 126 163 171 201 206 158 190 170 179 182 185 177 177 176 175 173 165 164 165 155 136 129 116 108 111 90 84 82 72 62 69 85 82 80 63
151 157 148 149 158 148 163 142 134 127 120 113 105 120 118 117 61 60 92 116 117 121 92 92 91 52 43 44 36 46 59 64 62 64 66 78 75 78 78 76 80 75 58 76 66 67 75 85 80 70 70 55 46 189 143 170 205 190 190 194 192 183 183 186 185 182 173 179 165 150 151 135 138 140 124 110 80 77 84 80 79 59 59 79 74
148 159 147 152 145 146 143 141 133 118 116 120 116 92 94 105 82 59 105 116 127 138 139 102 84 73 62 63 54 48 48 57 65 68 63 56 57 27 31 60 63 50 56 74 75 72 69 62 60 53 56 58 54 53 27 36 199 197 208 223 204 190 201 202 195 189 183 185 177 166 158 160 174 181 163 166 167 123 119 106 78 77 48 56 75
152 161 146 142 126 129 134 134 134 122 117 91 85 81 81 56 104 88 61 84 138 159 138 111 89 80 72 62 63 51 46 54 56 53 48 86 120 134 97 66 71 60 51 72 78 78 77 74 71 64 58 63 60 56 62 53 55 55 195 217 216 222 201 214 204 195 200 191 188 182 172 177 187 186 183 186 185 190 166 133 157 158 173 35 355
154 149 141 133 138 138 140 138 143 129 128 130 131 133 138 117 121 114 91 67 61 56 106 107 87 75 72 64 59 63 58 52 55 50 51 38 73 174 62 55 75 62 45 37 65 85 84 82 81 76 70 63 64 62 65 56 40 51 43 44 326 291 261 228 261 264 211 208 196 193 180 185 186 193 185 194 196 204 209 178 209 198 196 205 216
137 136 139 138 126 130 137 140 148 143 150 169 170 173 151 138 132 121 111 92 58 52 62 104 108 78 67 73 62 54 64 59 52 48 47 60 356 66 91 90 58 72 62 63 69 71 80 80 81 75 68 55 64 72 62 37 30 37 34 34 255 264 264 261 265 200 264 276 254 210 191 188 197 195 191 195 200 208 219 206 216 210 222 198 210
136 136 134 131 131 138 148 158 151 139 147 154 147 135 124 134 138 84 59 121 138 186 194 74 28 124 128 93 62 56 64 62 53 49 53 65 68 48 46 75 71 69 40 59 68 71 62 70 69 67 69 80 74 73 49 339 8 7 5 346 318 320 310 281 251 260 222 212 240 274 217 218 212 205 204 202 206 209 214 217 219 219 216 222 222
131 137 141 148 148 150 161 157 154 147 132 143 139 133 145 152 153 140 112 73 121 232 223 175 144 87 71 93 90 83 24 47 45 42 52 65 46 42 77 98 97 43 93 77 46 75 76 75 63 67 67 67 76 78 52 4 45 44 38 20 352 346 21 327 314 252 230 214 249 208 296 275 225 245 219 216 213 214 219 217 213 217 219 222 226
135 146 144 152 155 154 154 162 169 169 155 150 151 148 138 136 131 140 143 114 111 293 233 196 146 136 81 77 177 102 81 63 63 29 33 60 53 43 44 71 61 51 58 62 63 57 75 77 77 64 59 67 74 67 52 3 33 46 42 31 31 32 41 333 271 336 239 264 250 224 188 265 229 227 255 240 229 235 229 224 214 211 219 227 227
148 148 146 145 135 141 150 159 165 166 149 142 153 166 160 149 142 141 160 150 174 151 314 133 210 185 140 104 62 43 197 131 106 30 11 55 43 43 71 69 66 46 54 77 72 66 76 70 61 54 54 59 60 67 53 28 19 47 39 33 37 55 83 142 16 323 315 265 270 252 192 249 310 293 280 309 293 261 245 241 228 223 224 229 238
139 135 134 133 133 142 143 146 162 161 146 139 135 121 131 149 166 152 144 211 150 125 146 3 128 148 175 148 161 171 149 173 97 120 43 56 62 65 66 66 70 66 46 66 81 77 69 74 68 60 62 47 50 51 51 36 47 46 45 45 38 38 31 55 96 104 105 80 104 186 79 24 313 314 307 310 330 356 307 246 241 257 243 246 254
131 162 130 134 129 129 128 132 134 143 131 124 142 164 164 174 149 149 174 151 136 130 160 191 62 48 32 341 175 119 144 133 125 132 107 43 48 56 72 71 67 68 76 82 72 67 66 67 62 59 53 47 37 40 45 40 47 49 55 50 52 50 48 50 51 45 57 56 54 58 69 101 216 255 252 317 340 330 26 12 264 269 300 275 259
99 68 115 141 127 121 131 140 133 140 143 152 169 158 126 119 158 164 156 170 164 154 181 181 150 205 34 72 79 88 86 99 128 142 115 122 103 71 66 80 78 71 76 81 72 66 66 57 58 57 52 44 39 38 38 42 35 34 39 45 47 54 53 53 53 44 53 63 64 64 67 68 65 62 61 59 57 61 50 41 65 61 50 40 360
73 86 82 121 135 137 130 118 99 92 108 113 109 129 140 143 141 146 156 168 170 167 146 191 147 172 113 61 71 65 73 71 92 75 124 131 112 106 107 79 75 62 64 58 54 49 52 55 63 56 50 39 37 39 42 43 40 36 47 43 47 50 47 52 54 53 51 57 62 66 65 63 64 62 60 58 58 59 58 56 55 56 49 45 39
46 40 58 66 112 116 109 101 95 79 78 97 100 94 106 126 154 152 154 131 140 152 169 170 191 130 113 147 114 94 68 65 64 103 65 37 126 127 116 124 116 76 65 54 48 44 46 45 51 46 44 41 31 38 40 43 46 55 54 61 52 47 44 51 51 51 52 58 64 63 64 65 64 63 60 57 55 54 53 52 48 45 42 41 41
65 41 52 73 91 101 104 92 76 74 89 93 107 118 129 128 128 122 133 139 144 131 104 119 128 118 121 144 154 158 162 164 169 160 137 130 118 105 99 106 103 88 53 54 58 51 53 44 50 47 52 58 51 55 52 50 55 60 63 62 62 62 60 57 55 54 52 51 56 64 64 62 61 60 58 56 52 49 47 46 45 43 40 38 39
67 63 43 68 95 91 86 81 80 83 86 96 99 106 110 105 98 105 105 107 119 116 122 118 110 99 124 140 143 137 131 146 168 143 138 142 133 132 132 122 98 91 97 82 62 67 47 44 39 47 42 64 64 67 66 66 67 71 67 60 58 64 64 63 59 56 54 54 51 58 62 62 61 59 58 56 53 51 48 45 43 40 36 33 31
83 89 56 77 110 110 105 107 100 92 102 93 89 95 102 96 105 96 106 118 133 127 123 149 155 158 173 152 146 129 135 149 126 118 105 126 134 130 109 65 121 123 136 101 66 41 90 66 61 43 34 56 71 65 72 74 77 71 75 61 63 63 66 69 66 58 56 53 53 50 54 58 59 57 57 56 55 53 52 46 39 34 33 32 27
141 128 143 91 82 97 106 98 99 103 96 91 87 90 96 101 105 103 102 121 115 114 122 127 114 133 141 122 133 122 136 139 127 126 134 137 140 133 123 99 96 118 83 52 57 74 13 41 63 52 34 32 67 71 75 84 81 80 80 82 69 70 69 65 63 55 58 55 53 51 49 53 57 57 55 53 51 51 50 48 39 32 32 32 29
144 161 127 102 103 102 112 115 119 115 108 92 75 70 73 77 76 93 87 104 105 108 109 121 121 129 128 139 121 113 136 141 131 133 141 147 144 149 137 131 94 50 40 44 19 76 182 336 86 66 40 20 2 102 95 87 86 77 73 70 69 63 62 64 61 62 59 61 58 55 55 56 60 62 64 62 58 54 50 47 44 33 29 29 29
145 128 128 116 119 116 112 121 128 128 117 117 106 91 78 86 73 83 85 63 100 91 102 96 97 105 113 108 104 132 146 140 133 138 141 144 141 149 144 130 133 122 34 54 5 0 156 120 329 175 166 220 240 179 202 103 59 75 67 63 58 47 50 50 51 52 53 62 61 58 53 50 49 51 52 52 51 52 52 49 45 41 32 33 33
148 139 125 104 114 126 126 131 137 133 115 109 102 84 74 89 102 100 97 72 88 97 104 96 102 103 92 112 131 132 145 136 131 133 136 129 136 143 156 148 144 129 140 162 248 178 252 166 148 248 187 198 221 253 179 120 57 75 61 57 56 52 46 51 51 50 51 52 58 58 48 41 39 38 36 35 39 41 42 42 41 38 35 32 30
145 148 128 115 105 115 124 128 131 115 119 99 91 78 78 68 72 75 84 101 92 71 56 100 100 103 99 83 95 109 123 135 144 142 140 148 147 159 156 128 157 140 158 154 212 208 208 241 176 173 222 209 161 270 287 300 303 91 66 75 69 53 60 61 54 56 53 50 51 50 55 54 41 32 40 29 28 26 26 30 35 40 41 37 24
133 130 121 110 108 110 121 125 111 110 101 108 101 81 82 85 64 81 49 79 91 74 21 57 55 68 77 69 50 82 94 121 119 129 136 149 162 163 167 151 183 143 140 125 137 242 160 198 246 230 178 188 157 156 230 283 205 119 93 91 106 141 101 57 47 35 26 28 22 15 11 51 57 49 30 27 17 11 5 1 2 24 32 28 25
148 135 128 124 125 123 115 116 109 99 103 94 99 104 84 82 84 83 47 80 84 84 60 37 59 66 78 74 54 88 98 108 108 127 156 164 164 171 174 175 164 151 142 134 141 185 210 186 213 228 171 158 159 163 208 269 203 150 116 116 216 142 66 38 22 12 9 3 359 3 1 1 8 14 28 19 2 343 359 339 343 8 352 359 3
145 129 128 130 135 138 133 137 135 133 128 122 86 104 96 81 46 55 47 69 90 63 80 56 45 74 76 78 53 28 39 101 85 70 85 152 177 186 178 166 161 164 146 125 130 154 142 188 184 198 152 135 177 185 182 197 179 93 113 79 86 94 2 346 353 349 335 341 342 348 350 350 348 347 5 5 336 313 295 290 290 266 262 266 281
152 134 129 127 127 130 130 132 131 132 133 125 92 88 97 85 47 33 59 72 81 77 76 76 53 69 82 73 51 46 66 90 88 89 111 125 176 166 176 175 171 179 182 113 142 143 186 221 118 18 140 167 189 197 189 182 181 152 175 156 121 144 220 295 327 341 346 318 323 329 339 341 338 330 332 351 354 345 325 289 268 257 245 244 251
168 149 148 141 137 130 118 124 133 138 138 125 84 102 106 120 125 58 52 113 126 129 112 110 88 88 79 82 61 63 89 82 65 84 104 120 140 184 184 181 176 173 181 141 126 138 163 206 174 152 192 185 199 223 202 147 161 167 178 205 185 185 186 167 331 334 334 321 321 334 337 337 330 323 327 355 356 350 344 344 322 272 251 239 238
165 166 154 147 139 136 132 130 153 160 131 108 95 121 156 148 154 173 165 174 162 169 166 160 146 115 129 101 95 108 96 87 73 76 74 103 119 135 145 136 149 170 167 131 111 133 157 154 225 183 188 179 240 23 110 73 113 151 201 169 138 177 116 114 167 294 353 2 1 12 359 347 334 329 356 5 359 350 344 340 342 329 282 244 233
177 161 172 150 140 136 143 151 158 170 166 148 157 183 185 168 163 168 190 224 219 211 208 189 171 152 148 140 159 135 99 88 56 84 102 106 127 133 140 148 147 154 123 125 129 118 136 168 189 233 180 120 90 174 162 133 73 58 28 38 134 151 104 59 87 49 67 60 49 32 8 344 338 360 12 14 3 353 346 343 349 349 337 274 236
181 170 165 165 146 151 153 163 171 180 162 162 172 185 173 163 162 164 162 220 254 254 251 248 203 134 124 136 142 132 120 121 143 90 100 129 122 119 122 130 140 137 133 117 117 128 145 165 162 166 183 155 90 24 209 147 130 100 68 49 52 30 43 55 32 38 41 51 34 22 5 348 349 25 27 28 17 5 359 356 1 6 10 1 294
170 177 179 172 175 162 183 168 175 178 181 173 175 177 171 168 163 154 151 198 232 258 271 281 288 102 116 137 175 163 139 143 151 162 141 120 123 120 136 143 140 132 134 136 127 131 146 135 109 155 134 47 130 141 44 81 91 127 138 101 58 1 35 80 70 7 32 3 340 322 3 356 24 29 27 31 29 23 18 18 19 23 21 15 6
177 178 178 188 189 172 187 192 191 176 188 195 185 190 190 179 154 163 176 176 177 209 244 266 287 277 231 182 201 203 185 172 163 174 161 152 132 117 115 121 132 131 141 133 126 137 144 158 145 151 82 139 58 59 65 87 81 33 47 131 138 116 87 9 72 86 347 15 4 2 354 4 17 25 27 30 29 24 25 23 25 32 31 31 22
191 188 186 177 165 191 216 218 205 182 190 211 202 186 192 201 166 173 184 182 175 180 191 218 246 263 268 225 199 211 214 198 181 173 182 167 148 142 188 132 128 131 128 138 153 146 151 155 124 78 106 102 129 132 138 148 170 176 174 84 99 43 345 98 137 24 5 17 316 320 22 9 25 33 25 31 18 21 26 27 27 33 39 38 36
193 190 183 177 181 185 196 218 219 201 212 219 221 208 198 190 185 188 185 194 191 184 182 192 224 243 239 241 223 215 212 199 187 184 185 188 196 168 168 164 148 134 142 142 159 169 162 171 180 150 137 169 174 170 157 178 134 94 97 102 110 189 43 18 336 310 322 31 23 26 5 12 38 45 36 36 9 29 28 30 33 52 50 50 48
119 172 159 171 185 182 185 190 204 211 216 218 219 215 218 212 187 185 190 201 203 198 190 186 199 214 233 229 228 217 201 210 206 201 198 194 185 165 165 175 177 156 146 150 174 167 169 183 159 151 166 176 199 155 141 137 110 138 140 125 120 97 114 105 298 302 351 30 30 55 8 356 32 54 18 25 10 29 30 24 31 53 55 53 50
62 82 91 134 141 147 152 174 199 210 213 218 205 210 214 213 202 193 194 195 199 208 208 205 206 203 215 224 226 206 189 205 206 207 214 212 207 186 175 179 188 198 183 167 161 175 174 148 165 188 165 178 166 146 144 118 125 85 90 115 122 132 111 95 180 82 308 22 57 64 350 340 12 55 29 6 3 37 25 17 31 56 59 54 50
60 63 43 53 55 68 128 150 188 221 267 285 225 225 217 209 204 195 195 197 195 208 212 214 209 208 214 221 233 234 223 206 199 202 199 196 170 164 164 151 143 183 204 203 208 188 169 161 166 179 182 159 147 183 164 145 136 117 107 73 78 90 126 120 211 31 309 352 70 52 50 322 6 26 24 346 352 12 7 1 11 50 51 50 46
40 34 13 27 18 29 23 6 312 249 218 196 196 230 249 243 230 217 211 201 209 210 213 214 216 215 212 209 216 229 233 219 202 189 187 187 181 169 172 140 126 116 114 164 178 156 175 175 163 176 202 170 156 156 159 140 128 147 147 158 143 113 120 133 167 134 307 332 142 129 17 320 350 25 8 324 344 331 349 323 352 19 39 38 35
55 63 66 28 325 321 317 303 272 280 281 244 207 212 227 238 243 248 265 266 241 245 244 241 235 231 224 219 214 220 221 221 213 189 180 184 182 192 157 103 66 34 52 72 103 150 155 148 168 151 149 158 139 142 152 150 136 154 159 163 169 165 145 76 77 31 346 28 54 87 243 269 320 17 317 310 328 320 310 299 311 331 346 5 357
48 66 35 37 344 321 316 341 329 297 289 265 234 224 222 224 202 205 229 237 237 237 241 235 238 240 241 226 222 224 221 223 226 196 192 169 176 184 152 110 95 85 37 342 311 258 195 167 152 143 148 154 146 146 148 134 112 111 88 81 79 76 93 78 141 322 43 325 38 92 54 280 312 50 288 301 325 308 301 306 286 295 309 332 342
33 25 16 358 337 336 334 334 317 297 297 292 265 257 244 223 185 225 227 233 236 239 240 236 235 239 235 226 219 224 225 230 223 197 193 169 184 182 153 152 142 109 38 13 9 19 95 113 118 122 123 118 110 112 119 125 127 125 106 98 129 126 103 112 278 25 32 315 330 84 136 297 285 213 287 277 288 284 288 285 302 301 328 347 323
31 13 1 15 12 6 356 337 329 305 298 288 261 258 259 248 228 228 225 226 244 243 253 253 248 247 243 235 226 222 225 230 218 197 193 179 183 166 160 151 145 127 84 65 50 17 48 82 85 86 88 94 98 95 102 116 131 136 117 150 179 121 116 132 180 222 271 332 286 116 61 242 307 270 271 294 333 273 275 273 287 324 343 315 307
37 16 23 34 28 24 12 356 342 338 315 316 310 273 266 253 236 256 239 221 245 252 249 257 252 248 259 253 240 234 227 228 211 201 192 186 176 166 167 153 156 174 184 164 142 131 131 94 79 88 66 71 83 91 95 104 101 82 106 137 139 124 144 170 148 115 10 295 270 142 352 293 13 288 98 340 332 283 278 277 311 316 300 298 298